Location: Newark
(15.7058°N, 0.4100°E)
Time: 20:08:17
(UTC+00:00)

LightSail 2 - Visible Passes

Search period start: 07 December 2019 00:00
Search period end: 17 December 2019 00:00
Orbit: 696 x 730 km, 24.0° (Epoch: 06 December)

Date Brightness Start Highest point End Pass type
(mag) Time Alt. Az. Time Alt. Az. Time Alt. Az.
07 Dec 5.5 18:55:49 10° WNW 19:00:44 44° NNE 19:01:02 43° NNE visible
08 Dec 5.9 17:57:43 10° WNW 18:02:32 38° N 18:06:51 12° ENE visible
08 Dec 6.6 19:43:10 10° WNW 19:45:51 31° WNW 19:45:51 31° WNW visible
09 Dec 5.1 18:45:05 10° WNW 18:50:12 62° NNE 18:51:44 42° ENE visible
10 Dec 5.5 17:46:59 10° WNW 17:52:02 49° NNE 17:57:01 10° E visible
10 Dec 5.8 19:32:32 10° WNW 19:36:45 53° WSW 19:36:45 53° WSW visible
11 Dec 5.1 18:34:21 10° WNW 18:39:33 87° SSW 18:42:52 22° ESE visible
11 Dec 7.8 20:20:40 10° W 20:21:52 15° WSW 20:21:52 15° WSW visible
12 Dec 6.3 19:22:07 10° W 19:26:53 37° SSW 19:28:06 32° S visible
13 Dec 5.9 18:23:44 10° W 18:28:48 53° SSW 18:33:48 10° SE visible
13 Dec 7.7 20:11:14 10° WSW 20:13:30 15° SW 20:13:30 15° SW visible
14 Dec 7.3 19:12:06 10° WSW 19:16:03 22° SSW 19:19:57 10° SSE visible
15 Dec 6.9 18:13:23 10° W 18:17:58 31° SSW 18:22:31 10° SE visible
16 Dec 7.9 19:03:12 10° SW 19:05:13 12° SSW 19:07:15 10° S visible
